Torna al catalogo

CZ-4C DEB

AttivoSSO
NORAD 38660·DEBRIS·🇨🇳 China

Lanciato Dec 15, 2009 da Taiyuan Satellite Launch Center

Loading…

Prossimi Passaggi (prossime 24 ore)

TLE

AggiornatoSource: Space-Track

Epoca: Sep 14, 2026, 10:56 UTC

1 38660U 09072H   26257.45584874 -.00000092  00000-0 -17350-3 0  9990
2 38660 100.4554 119.2648 0154541 227.6576 253.7274 12.92919580781204

Traccia CZ-4C DEB in tempo reale con AllMySat

Download on the App Store